TimeEDT,TemperatureF,Dew PointF,Humidity,Sea Level PressureIn,VisibilityMPH,Wind Direction,Wind SpeedMPH,Gust SpeedMPH,PrecipitationIn,Events,Conditions,WindDirDegrees,DateUTC
12:54 AM,62.1,60.1,93,30.11,10.0,Calm,Calm,-,N/A,,Clear,0,2008-08-24 04:54:00
1:54 AM,62.1,60.1,93,30.11,10.0,Calm,Calm,-,N/A,,Clear,0,2008-08-24 05:54:00
2:38 AM,62.6,60.8,94,30.17,10.0,Calm,Calm,-,N/A,,Overcast,0,2008-08-24 06:38:00
2:54 AM,63.0,60.1,90,30.09,10.0,Calm,Calm,-,N/A,,Overcast,0,2008-08-24 06:54:00
3:11 AM,62.6,59.0,88,30.16,10.0,Calm,Calm,-,N/A,,Mostly Cloudy,0,2008-08-24 07:11:00
3:42 AM,60.8,60.8,100,30.16,9.0,Calm,Calm,-,N/A,,Mostly Cloudy,0,2008-08-24 07:42:00
3:54 AM,62.1,60.1,93,30.09,9.0,Calm,Calm,-,N/A,,Mostly Cloudy,0,2008-08-24 07:54:00
4:22 AM,62.6,60.8,94,30.16,10.0,Calm,Calm,-,N/A,,Overcast,0,2008-08-24 08:22:00
4:54 AM,62.1,60.1,93,30.08,10.0,Calm,Calm,-,N/A,,Mostly Cloudy,0,2008-08-24 08:54:00
5:54 AM,62.1,60.1,93,30.08,10.0,Calm,Calm,-,N/A,,Overcast,0,2008-08-24 09:54:00
6:16 AM,62.6,60.8,94,30.15,10.0,Calm,Calm,-,N/A,,Overcast,0,2008-08-24 10:16:00
6:54 AM,63.0,60.1,90,30.09,10.0,Calm,Calm,-,N/A,,Overcast,0,2008-08-24 10:54:00
7:54 AM,64.0,61.0,90,30.09,10.0,Calm,Calm,-,N/A,,Mostly Cloudy,0,2008-08-24 11:54:00
8:54 AM,68.0,62.1,81,30.09,10.0,SSW,4.6,-,N/A,,Clear,200,2008-08-24 12:54:00
9:54 AM,72.0,61.0,68,30.09,10.0,Variable,4.6,-,N/A,,Clear,0,2008-08-24 13:54:00
10:54 AM,75.0,60.1,60,30.08,10.0,SSE,11.5,-,N/A,,Clear,150,2008-08-24 14:54:00
11:54 AM,75.0,60.1,60,30.07,10.0,Variable,6.9,-,N/A,,Clear,0,2008-08-24 15:54:00
12:54 PM,77.0,60.1,56,30.06,10.0,SE,9.2,-,N/A,,Partly Cloudy,130,2008-08-24 16:54:00
1:54 PM,77.0,60.1,56,30.05,10.0,SE,5.8,-,N/A,,Mostly Cloudy,140,2008-08-24 17:54:00
2:54 PM,78.1,59.0,52,30.02,10.0,East,8.1,-,N/A,,Scattered Clouds,80,2008-08-24 18:54:00
3:54 PM,78.1,60.1,54,30.00,10.0,Variable,5.8,-,N/A,,Overcast,0,2008-08-24 19:54:00
4:54 PM,78.1,60.1,54,30.00,10.0,SSE,5.8,-,N/A,,Overcast,150,2008-08-24 20:54:00
5:54 PM,78.1,61.0,56,29.99,10.0,SSE,8.1,-,N/A,,Overcast,160,2008-08-24 21:54:00
6:54 PM,77.0,61.0,58,29.99,10.0,ESE,6.9,-,N/A,,Mostly Cloudy,120,2008-08-24 22:54:00
7:54 PM,75.0,62.1,64,29.98,10.0,SSE,5.8,-,N/A,,Clear,150,2008-08-24 23:54:00
8:54 PM,73.0,62.1,68,30.00,10.0,SSW,3.5,-,N/A,,Clear,200,2008-08-25 00:54:00
9:54 PM,72.0,63.0,73,30.01,10.0,South,4.6,-,N/A,,Mostly Cloudy,180,2008-08-25 01:54:00
10:54 PM,72.0,63.0,73,30.01,10.0,Calm,Calm,-,N/A,,Overcast,0,2008-08-25 02:54:00
11:54 PM,71.1,63.0,75,30.01,10.0,Calm,Calm,-,N/A,,Overcast,0,2008-08-25 03:54:00